| time (UTC) | temp F | wind direction | speed MPH | gust MPH | rain 1hr in | rain 24hr in | rain mn in | humidity % | barometer mb |
| 20260503032458 | 45 | 291 | 0.0 | 0.0 | 0.00 | 0.37 | 0.37 | 99 | 1015.0 |
| 20260503031956 | 46 | 290 | 0.0 | 0.0 | 0.00 | 0.37 | 0.37 | 99 | 1014.8 |
| 20260503031454 | 46 | 290 | 0.0 | 0.0 | 0.00 | 0.37 | 0.37 | 99 | 1014.8 |
| 20260503030950 | 46 | 291 | 0.0 | 0.0 | 0.00 | 0.37 | 0.37 | 99 | 1014.9 |
| 20260503030446 | 47 | 291 | 0.0 | 0.0 | 0.00 | 0.37 | 0.37 | 99 | 1014.7 |
| 20260503025943 | 47 | 291 | 0.0 | 0.0 | 0.00 | 0.37 | 0.37 | 99 | 1014.8 |
| 20260503025440 | 47 | 290 | 0.0 | 0.0 | 0.00 | 0.37 | 0.37 | 99 | 1014.7 |
| 20260503024938 | 47 | 290 | 0.0 | 0.0 | 0.00 | 0.37 | 0.37 | 99 | 1014.7 |
| 20260503024434 | 47 | 290 | 0.0 | 0.0 | 0.00 | 0.37 | 0.37 | 99 | 1014.7 |
| 20260503023931 | 47 | 290 | 0.0 | 0.0 | 0.00 | 0.37 | 0.37 | 99 | 1014.6 |
| 20260503023428 | 47 | 290 | 0.0 | 0.0 | 0.00 | 0.37 | 0.37 | 99 | 1014.5 |
| 20260503022925 | 48 | 290 | 0.0 | 0.0 | 0.00 | 0.37 | 0.37 | 99 | 1014.4 |
| 20260503022420 | 48 | 290 | 0.0 | 0.0 | 0.00 | 0.37 | 0.37 | 99 | 1014.3 |
| 20260503021916 | 48 | 290 | 0.0 | 0.0 | 0.00 | 0.37 | 0.37 | 99 | 1014.4 |
| 20260503021412 | 48 | 290 | 0.0 | 0.0 | 0.00 | 0.37 | 0.37 | 99 | 1014.7 |
| 20260503020910 | 49 | 290 | 0.0 | 0.0 | 0.00 | 0.37 | 0.37 | 99 | 1014.6 |
| 20260503020408 | 48 | 290 | 0.0 | 0.0 | 0.00 | 0.37 | 0.37 | 99 | 1014.6 |
| 20260503015903 | 48 | 290 | 0.0 | 0.0 | 0.00 | 0.37 | 0.37 | 99 | 1014.6 |
| 20260503015401 | 48 | 290 | 0.0 | 0.0 | 0.00 | 0.37 | 0.37 | 99 | 1014.8 |
| 20260503014856 | 48 | 290 | 0.0 | 0.0 | 0.00 | 0.37 | 0.37 | 99 | 1014.6 |
| 20260503014354 | 48 | 290 | 0.0 | 0.0 | 0.00 | 0.37 | 0.37 | 99 | 1014.7 |
| 20260503013852 | 49 | 290 | 0.0 | 0.0 | 0.00 | 0.37 | 0.37 | 99 | 1014.5 |
| 20260503013348 | 49 | 290 | 0.0 | 0.0 | 0.00 | 0.37 | 0.37 | 99 | 1014.5 |
| 20260503012846 | 49 | 290 | 0.0 | 0.0 | 0.00 | 0.37 | 0.37 | 99 | 1014.4 |
| 20260503012343 | 49 | 290 | 0.0 | 0.0 | 0.00 | 0.37 | 0.37 | 99 | 1014.4 |
| 20260503011840 | 49 | 290 | 0.0 | 0.0 | 0.00 | 0.37 | 0.37 | 99 | 1014.3 |
| 20260503011337 | 49 | 290 | 0.0 | 0.0 | 0.00 | 0.37 | 0.37 | 99 | 1014.1 |
| 20260503010833 | 50 | 290 | 0.0 | 0.0 | 0.00 | 0.37 | 0.37 | 99 | 1014.2 |
| 20260503010331 | 50 | 290 | 0.0 | 0.0 | 0.00 | 0.37 | 0.37 | 99 | 1014.0 |
| 20260503005827 | 50 | 290 | 0.0 | 0.0 | 0.00 | 0.37 | 0.37 | 99 | 1014.0 |
| 20260503005325 | 50 | 290 | 0.0 | 0.0 | 0.00 | 0.37 | 0.37 | 99 | 1013.8 |
| 20260503004821 | 50 | 290 | 0.0 | 0.0 | 0.00 | 0.37 | 0.37 | 99 | 1013.7 |
| 20260503004319 | 51 | 289 | 0.0 | 0.0 | 0.00 | 0.37 | 0.37 | 99 | 1013.6 |
| 20260503003816 | 51 | 289 | 0.0 | 0.0 | 0.00 | 0.37 | 0.37 | 99 | 1013.6 |
| 20260503003313 | 52 | 290 | 0.0 | 0.0 | 0.00 | 0.37 | 0.37 | 99 | 1013.6 |
| 20260503002810 | 52 | 289 | 0.0 | 0.0 | 0.00 | 0.37 | 0.37 | 99 | 1013.4 |
| 20260503002307 | 52 | 290 | 0.0 | 0.0 | 0.00 | 0.37 | 0.37 | 99 | 1013.5 |
| 20260503001803 | 52 | 289 | 0.0 | 0.0 | 0.00 | 0.37 | 0.37 | 99 | 1013.3 |
| 20260503001259 | 52 | 289 | 0.0 | 0.0 | 0.00 | 0.37 | 0.37 | 99 | 1013.1 |
| 20260503000757 | 52 | 289 | 0.0 | 0.0 | 0.00 | 0.37 | 0.37 | 99 | 1013.1 |
| 20260503000254 | 53 | 289 | 0.0 | 0.0 | 0.00 | 0.37 | 0.37 | 99 | 1013.0 |
| 20260502235751 | 53 | 289 | 0.0 | 0.0 | 0.00 | 0.37 | 0.37 | 99 | 1012.9 |
| 20260502235249 | 53 | 289 | 0.0 | 0.0 | 0.00 | 0.37 | 0.37 | 99 | 1012.7 |
| 20260502234745 | 53 | 289 | 0.0 | 0.0 | 0.00 | 0.37 | 0.37 | 99 | 1013.0 |
| 20260502234242 | 53 | 289 | 0.0 | 0.0 | 0.00 | 0.37 | 0.37 | 99 | 1012.7 |
| 20260502233738 | 53 | 289 | 0.0 | 0.0 | 0.00 | 0.37 | 0.37 | 99 | 1012.9 |
| 20260502233235 | 53 | 289 | 0.0 | 0.0 | 0.00 | 0.37 | 0.37 | 99 | 1012.7 |
| 20260502232731 | 53 | 289 | 0.0 | 0.0 | 0.00 | 0.37 | 0.37 | 99 | 1012.9 |
| 20260502232228 | 53 | 289 | 0.0 | 0.0 | 0.00 | 0.37 | 0.37 | 98 | 1012.7 |
| 20260502231725 | 53 | 289 | 0.0 | 0.0 | 0.00 | 0.37 | 0.37 | 98 | 1012.9 |
| 20260502231223 | 53 | 289 | 0.0 | 0.0 | 0.00 | 0.37 | 0.37 | 97 | 1012.5 |
| 20260502230721 | 53 | 289 | 0.0 | 0.0 | 0.00 | 0.37 | 0.37 | 97 | 1012.5 |
| 20260502230219 | 53 | 289 | 0.0 | 0.0 | 0.00 | 0.37 | 0.37 | 97 | 1012.5 |
| 20260502225714 | 53 | 289 | 0.0 | 0.0 | 0.00 | 0.37 | 0.37 | 96 | 1012.6 |
| 20260502225212 | 53 | 289 | 0.0 | 0.0 | 0.00 | 0.37 | 0.37 | 96 | 1012.6 |
| 20260502224708 | 53 | 289 | 0.0 | 0.0 | 0.00 | 0.37 | 0.37 | 95 | 1012.5 |
| 20260502224205 | 53 | 289 | 0.0 | 0.0 | 0.00 | 0.37 | 0.37 | 95 | 1012.7 |
| 20260502223702 | 53 | 289 | 0.0 | 0.0 | 0.00 | 0.37 | 0.37 | 95 | 1012.6 |
| 20260502223201 | 53 | 289 | 0.0 | 0.0 | 0.00 | 0.37 | 0.37 | 94 | 1012.7 |
| 20260502222658 | 53 | 288 | 0.0 | 1.0 | 0.00 | 0.37 | 0.37 | 94 | 1012.7 |
| 20260502222155 | 53 | 289 | 1.0 | 2.0 | 0.00 | 0.37 | 0.37 | 94 | 1012.5 |
| 20260502221650 | 54 | 290 | 1.0 | 1.0 | 0.00 | 0.37 | 0.37 | 95 | 1012.6 |
| 20260502221147 | 54 | 291 | 0.0 | 0.0 | 0.00 | 0.37 | 0.37 | 95 | 1012.6 |
| 20260502220643 | 54 | 291 | 0.0 | 1.0 | 0.00 | 0.37 | 0.37 | 94 | 1012.5 |
| 20260502220140 | 53 | 292 | 0.0 | 1.0 | 0.00 | 0.37 | 0.37 | 94 | 1012.4 |
| 20260502215637 | 53 | 281 | 1.0 | 2.0 | 0.00 | 0.37 | 0.37 | 93 | 1012.2 |
| 20260502215133 | 53 | 290 | 1.0 | 2.0 | 0.00 | 0.37 | 0.37 | 94 | 1012.3 |
| 20260502214631 | 53 | 290 | 0.0 | 1.0 | 0.00 | 0.37 | 0.37 | 94 | 1012.4 |
| 20260502214128 | 53 | 278 | 1.0 | 2.0 | 0.00 | 0.37 | 0.37 | 94 | 1012.3 |
| 20260502213625 | 54 | 288 | 1.0 | 1.0 | 0.00 | 0.37 | 0.37 | 95 | 1012.3 |
| 20260502213122 | 54 | 286 | 1.0 | 2.0 | 0.00 | 0.37 | 0.37 | 95 | 1012.2 |
| 20260502212621 | 53 | 285 | 0.0 | 1.0 | 0.00 | 0.37 | 0.37 | 95 | 1012.2 |
| 20260502212119 | 53 | 297 | 1.0 | 2.0 | 0.00 | 0.37 | 0.37 | 95 | 1012.2 |
| 20260502211614 | 53 | 298 | 1.0 | 2.0 | 0.00 | 0.37 | 0.37 | 94 | 1012.3 |
| 20260502211112 | 53 | 289 | 1.0 | 2.0 | 0.00 | 0.37 | 0.37 | 94 | 1012.1 |
| 20260502210609 | 53 | 277 | 1.0 | 2.0 | 0.00 | 0.37 | 0.37 | 94 | 1012.3 |
| 20260502210106 | 53 | 290 | 1.0 | 2.0 | 0.00 | 0.37 | 0.37 | 95 | 1012.3 |
| 20260502205602 | 53 | 289 | 0.0 | 5.0 | 0.00 | 0.37 | 0.37 | 94 | 1012.1 |
| 20260502205100 | 53 | 268 | 2.0 | 3.0 | 0.00 | 0.37 | 0.37 | 94 | 1012.3 |
| 20260502204556 | 53 | 301 | 1.0 | 3.0 | 0.00 | 0.37 | 0.37 | 94 | 1012.3 |
| 20260502204054 | 53 | 263 | 3.0 | 5.0 | 0.00 | 0.37 | 0.37 | 95 | 1012.4 |
| 20260502203551 | 53 | 294 | 0.0 | 1.0 | 0.00 | 0.37 | 0.37 | 96 | 1012.5 |
| 20260502203048 | 53 | 286 | 1.0 | 2.0 | 0.00 | 0.37 | 0.37 | 96 | 1012.3 |
| 20260502202544 | 53 | 307 | 0.0 | 1.0 | 0.00 | 0.37 | 0.37 | 96 | 1012.4 |
| 20260502202042 | 53 | 275 | 1.0 | 3.0 | 0.00 | 0.37 | 0.37 | 96 | 1012.4 |
| 20260502201538 | 53 | 274 | 2.0 | 2.0 | 0.00 | 0.37 | 0.37 | 96 | 1012.5 |
| 20260502201034 | 53 | 296 | 2.0 | 5.0 | 0.00 | 0.37 | 0.37 | 96 | 1012.2 |
| 20260502200530 | 53 | 278 | 1.0 | 2.0 | 0.00 | 0.37 | 0.37 | 97 | 1012.4 |
| 20260502200029 | 53 | 264 | 2.0 | 2.0 | 0.00 | 0.37 | 0.37 | 97 | 1012.5 |
| 20260502195526 | 53 | 224 | 2.0 | 3.0 | 0.00 | 0.37 | 0.37 | 97 | 1012.6 |
| 20260502195021 | 53 | 297 | 0.0 | 2.0 | 0.00 | 0.37 | 0.37 | 97 | 1012.6 |
| 20260502194519 | 52 | 291 | 1.0 | 5.0 | 0.00 | 0.37 | 0.37 | 97 | 1012.5 |
| 20260502194015 | 53 | 211 | 2.0 | 3.0 | 0.00 | 0.37 | 0.37 | 98 | 1012.7 |
| 20260502193512 | 53 | 280 | 1.0 | 2.0 | 0.00 | 0.37 | 0.37 | 99 | 1012.7 |
| 20260502193009 | 53 | 288 | 2.0 | 3.0 | 0.00 | 0.37 | 0.37 | 99 | 1012.7 |
| 20260502192505 | 53 | 270 | 1.0 | 2.0 | 0.00 | 0.37 | 0.37 | 99 | 1012.9 |
| 20260502192002 | 52 | 298 | 4.0 | 6.0 | 0.00 | 0.37 | 0.37 | 98 | 1012.7 |
| 20260502191500 | 53 | 290 | 1.0 | 3.0 | 0.00 | 0.37 | 0.37 | 99 | 1012.9 |
| 20260502190956 | 52 | 284 | 1.0 | 2.0 | 0.00 | 0.37 | 0.37 | 99 | 1013.2 |
| 20260502190454 | 52 | 274 | 3.0 | 6.0 | 0.00 | 0.37 | 0.37 | 99 | 1013.1 |
| 20260502185950 | 52 | 273 | 1.0 | 2.0 | 0.00 | 0.37 | 0.37 | 99 | 1013.1 |
| 20260502185446 | 52 | 203 | 2.0 | 3.0 | 0.00 | 0.37 | 0.37 | 99 | 1013.2 |
| 20260502184942 | 52 | 272 | 1.0 | 2.0 | 0.00 | 0.37 | 0.37 | 99 | 1013.3 |
| 20260502184438 | 52 | 299 | 3.0 | 6.0 | 0.00 | 0.37 | 0.37 | 99 | 1013.1 |
| 20260502183935 | 51 | 280 | 1.0 | 7.0 | 0.00 | 0.37 | 0.37 | 99 | 1013.2 |
| 20260502183431 | 52 | 270 | 2.0 | 3.0 | 0.00 | 0.37 | 0.37 | 99 | 1013.2 |
| 20260502182926 | 51 | 276 | 1.0 | 3.0 | 0.00 | 0.37 | 0.37 | 99 | 1013.1 |
| 20260502182422 | 51 | 295 | 3.0 | 6.0 | 0.00 | 0.37 | 0.37 | 99 | 1013.0 |
| 20260502181918 | 51 | 282 | 0.0 | 1.0 | 0.07 | 0.37 | 0.37 | 99 | 1013.5 |
| 20260502181417 | 51 | 272 | 5.0 | 7.0 | 0.07 | 0.37 | 0.37 | 99 | 1013.7 |
| 20260502180915 | 51 | 238 | 1.0 | 3.0 | 0.00 | 0.36 | 0.36 | 99 | 1013.7 |
| 20260502180412 | 51 | 291 | 1.0 | 3.0 | 0.00 | 0.36 | 0.36 | 99 | 1013.5 |
| 20260502170331 | 51 | 218 | 1.0 | 2.0 | 0.00 | 0.34 | 0.34 | 99 | 1013.6 |
| 20260502164318 | 51 | 290 | 0.0 | 3.0 | 0.07 | 0.33 | 0.33 | 99 | 1013.6 |
| 20260502163814 | 51 | 315 | 2.0 | 5.0 | 0.07 | 0.32 | 0.32 | 99 | 1014.0 |
| 20260502163310 | 51 | 278 | 2.0 | 3.0 | 0.05 | 0.31 | 0.31 | 99 | 1014.3 |
| 20260502162808 | 51 | 226 | 5.0 | 6.0 | 0.12 | 0.31 | 0.31 | 99 | 1014.3 |
| 20260502162305 | 51 | 279 | 1.0 | 2.0 | 0.12 | 0.30 | 0.30 | 99 | 1014.5 |
| 20260502161801 | 51 | 303 | 0.0 | 1.0 | 0.12 | 0.29 | 0.29 | 99 | 1014.4 |
| 20260502161257 | 51 | 293 | 2.0 | 3.0 | 0.07 | 0.28 | 0.28 | 99 | 1014.3 |
| 20260502160756 | 51 | 294 | 3.0 | 5.0 | 0.05 | 0.27 | 0.27 | 99 | 1014.3 |
| 20260502160254 | 51 | 288 | 1.0 | 3.0 | 0.07 | 0.26 | 0.26 | 99 | 1014.4 |
| 20260502152224 | 52 | 292 | 1.0 | 2.0 | 0.00 | 0.23 | 0.23 | 99 | 1014.1 |
| 20260502151721 | 52 | 283 | 3.0 | 7.0 | 0.00 | 0.23 | 0.23 | 99 | 1014.1 |
| 20260502151218 | 52 | 211 | 3.0 | 6.0 | 0.05 | 0.23 | 0.23 | 99 | 1014.2 |
| 20260502150715 | 52 | 281 | 1.0 | 7.0 | 0.05 | 0.23 | 0.23 | 99 | 1014.2 |
| 20260502150212 | 52 | 297 | 1.0 | 3.0 | 0.00 | 0.22 | 0.22 | 99 | 1014.2 |
| 20260502130601 | 52 | 243 | 0.0 | 1.0 | 0.05 | 0.14 | 0.14 | 99 | 1013.4 |
| 20260502123544 | 52 | 1 | 1.0 | 1.0 | 0.05 | 0.12 | 0.12 | 99 | 1012.9 |
| 20260502123040 | 51 | 293 | 0.0 | 3.0 | 0.05 | 0.12 | 0.12 | 99 | 1012.6 |
| 20260502122536 | 51 | 251 | 3.0 | 3.0 | 0.07 | 0.11 | 0.11 | 99 | 1012.6 |
| 20260502122034 | 51 | 273 | 0.0 | 1.0 | 0.12 | 0.11 | 0.11 | 99 | 1012.6 |
| 20260502121531 | 52 | 138 | 2.0 | 3.0 | 0.12 | 0.10 | 0.10 | 99 | 1012.5 |
| 20260502121029 | 52 | 306 | 0.0 | 5.0 | 0.07 | 0.09 | 0.09 | 99 | 1012.6 |
| 20260502120525 | 52 | 335 | 0.0 | 2.0 | 0.05 | 0.08 | 0.08 | 98 | 1012.9 |
| 20260502115520 | 52 | 226 | 2.0 | 2.0 | 0.07 | 0.07 | 0.07 | 98 | 1012.6 |
| 20260502115015 | 52 | 288 | 0.0 | 2.0 | 0.07 | 0.07 | 0.07 | 98 | 1012.4 |
| 20260502114512 | 52 | 340 | 0.0 | 0.0 | 0.00 | 0.06 | 0.06 | 98 | 1012.9 |
| 20260502114009 | 52 | 25 | 2.0 | 2.0 | 0.07 | 0.06 | 0.06 | 97 | 1012.9 |
| 20260502113507 | 52 | 314 | 0.0 | 3.0 | 0.07 | 0.06 | 0.06 | 97 | 1012.7 |
| 20260502113006 | 52 | 261 | 1.0 | 3.0 | 0.05 | 0.05 | 0.05 | 97 | 1012.7 |
| 20260502112503 | 52 | 349 | 1.0 | 2.0 | 0.05 | 0.05 | 0.05 | 97 | 1012.9 |
| 20260502112000 | 52 | 275 | 0.0 | 1.0 | 0.07 | 0.04 | 0.04 | 97 | 1013.1 |
| 20260502111457 | 52 | 73 | 2.0 | 2.0 | 0.07 | 0.04 | 0.04 | 97 | 1013.2 |
| 20260502110955 | 52 | 337 | 1.0 | 2.0 | 0.05 | 0.03 | 0.03 | 97 | 1013.2 |
| 20260502110452 | 53 | 319 | 0.0 | 1.0 | 0.05 | 0.03 | 0.03 | 97 | 1013.3 |
| 20260502105949 | 53 | 281 | 0.0 | 3.0 | 0.00 | 0.02 | 0.02 | 97 | 1013.2 |
| 20260502105447 | 53 | 65 | 1.0 | 3.0 | 0.07 | 0.02 | 0.02 | 97 | 1013.0 |
| 20260502104944 | 53 | 18 | 2.0 | 3.0 | 0.07 | 0.02 | 0.02 | 97 | 1013.1 |
| 20260502104441 | 53 | 68 | 2.0 | 3.0 | 0.00 | 0.01 | 0.01 | 98 | 1013.1 |
| 20260502103938 | 53 | 43 | 1.0 | 2.0 | 0.05 | 0.01 | 0.01 | 98 | 1013.1 |
| 20260502103436 | 53 | 277 | 0.0 | 3.0 | 0.05 | 0.01 | 0.01 | 99 | 1013.1 |
| 20260502102933 | 53 | 241 | 3.0 | 5.0 | 0.00 | 0.00 | 0.00 | 99 | 1013.0 |
| 20260502102429 | 53 | 317 | 1.0 | 6.0 | 0.00 | 0.00 | 0.00 | 99 | 1013.0 |
| 20260502101926 | 53 | 220 | 2.0 | 5.0 | 0.00 | 0.00 | 0.00 | 99 | 1013.1 |
| 20260502101425 | 53 | 105 | 1.0 | 2.0 | 0.00 | 0.00 | 0.00 | 99 | 1013.0 |
| 20260502100923 | 52 | 156 | 1.0 | 2.0 | 0.00 | 0.00 | 0.00 | 99 | 1013.0 |
| 20260502100422 | 52 | 110 | 1.0 | 2.0 | 0.00 | 0.00 | 0.00 | 99 | 1013.2 |
| 20260502091356 | 52 | 355 | 0.0 | 1.0 | 0.00 | 0.00 | 0.00 | 99 | 1013.3 |
| 20260502090853 | 52 | 339 | 0.0 | 0.0 | 0.00 | 0.00 | 0.00 | 99 | 1013.3 |
| 20260502090350 | 52 | 3 | 2.0 | 2.0 | 0.00 | 0.00 | 0.00 | 99 | 1013.0 |
| 20260502071245 | 51 | 312 | 0.0 | 0.0 | 0.00 | 0.00 | 0.00 | 99 | 1012.3 |
| 20260502070743 | 51 | 312 | 0.0 | 0.0 | 0.00 | 0.00 | 0.00 | 99 | 1012.2 |
| 20260502070240 | 51 | 312 | 0.0 | 0.0 | 0.00 | 0.00 | 0.00 | 99 | 1012.3 |
| 20260502065739 | 51 | 312 | 0.0 | 0.0 | 0.00 | 0.00 | 0.00 | 99 | 1012.3 |
| 20260502065236 | 51 | 312 | 0.0 | 0.0 | 0.00 | 0.00 | 0.00 | 99 | 1012.4 |
| 20260502064735 | 51 | 312 | 0.0 | 0.0 | 0.00 | 0.00 | 0.00 | 99 | 1012.7 |
| 20260502064232 | 51 | 312 | 0.0 | 0.0 | 0.00 | 0.00 | 0.00 | 99 | 1012.5 |
| 20260502063729 | 51 | 311 | 0.0 | 0.0 | 0.00 | 0.00 | 0.00 | 99 | 1012.6 |
| 20260502063227 | 51 | 288 | 0.0 | 0.0 | 0.00 | 0.00 | 0.00 | 99 | 1012.5 |
| 20260502062724 | 51 | 288 | 0.0 | 0.0 | 0.00 | 0.00 | 0.00 | 99 | 1012.6 |
| 20260502062222 | 51 | 288 | 0.0 | 0.0 | 0.00 | 0.00 | 0.00 | 99 | 1012.6 |
| 20260502061720 | 51 | 288 | 0.0 | 0.0 | 0.00 | 0.00 | 0.00 | 99 | 1012.9 |
| 20260502061217 | 51 | 288 | 0.0 | 0.0 | 0.00 | 0.00 | 0.00 | 99 | 1012.7 |
| 20260502060712 | 51 | 288 | 0.0 | 0.0 | 0.00 | 0.00 | 0.00 | 99 | 1012.7 |
| 20260502060209 | 51 | 288 | 0.0 | 0.0 | 0.00 | 0.00 | 0.00 | 99 | 1013.1 |
| 20260502055707 | 51 | 288 | 0.0 | 0.0 | 0.00 | 0.00 | 0.00 | 99 | 1012.6 |
| 20260502055204 | 51 | 288 | 0.0 | 0.0 | 0.00 | 0.00 | 0.00 | 99 | 1012.9 |
| 20260502054704 | 51 | 288 | 0.0 | 0.0 | 0.00 | 0.00 | 0.00 | 99 | 1013.2 |
| 20260502054200 | 51 | 288 | 0.0 | 0.0 | 0.00 | 0.00 | 0.00 | 99 | 1013.1 |
| 20260502053658 | 51 | 288 | 0.0 | 0.0 | 0.00 | 0.00 | 0.00 | 99 | 1013.3 |
| 20260502053154 | 51 | 288 | 0.0 | 0.0 | 0.00 | 0.00 | 0.00 | 99 | 1013.2 |
| 20260502052653 | 51 | 288 | 0.0 | 0.0 | 0.00 | 0.00 | 0.00 | 99 | 1013.3 |
| 20260502052151 | 51 | 288 | 0.0 | 0.0 | 0.00 | 0.00 | 0.00 | 99 | 1013.3 |
| 20260502051648 | 51 | 288 | 0.0 | 0.0 | 0.00 | 0.00 | 0.00 | 99 | 1013.3 |
| 20260502051147 | 51 | 288 | 0.0 | 0.0 | 0.00 | 0.00 | 0.00 | 99 | 1013.5 |
| 20260502050642 | 51 | 288 | 0.0 | 0.0 | 0.00 | 0.00 | 0.00 | 99 | 1013.5 |
| 20260502050139 | 51 | 288 | 0.0 | 0.0 | 0.00 | 0.00 | 0.00 | 99 | 1013.7 |
| 20260502045636 | 51 | 288 | 0.0 | 0.0 | 0.00 | 0.00 | 0.00 | 99 | 1013.3 |
| 20260502045133 | 51 | 288 | 0.0 | 0.0 | 0.00 | 0.00 | 0.00 | 99 | 1013.7 |
| 20260502044629 | 51 | 288 | 0.0 | 0.0 | 0.00 | 0.00 | 0.00 | 99 | 1013.5 |
| 20260502044126 | 51 | 287 | 0.0 | 0.0 | 0.00 | 0.00 | 0.00 | 99 | 1013.6 |
| 20260502043624 | 51 | 287 | 0.0 | 0.0 | 0.00 | 0.00 | 0.00 | 99 | 1013.6 |
| 20260502043121 | 51 | 287 | 0.0 | 0.0 | 0.00 | 0.00 | 0.00 | 99 | 1013.7 |
| 20260502042621 | 51 | 287 | 0.0 | 0.0 | 0.00 | 0.00 | 0.00 | 99 | 1013.7 |
| 20260502042118 | 51 | 287 | 0.0 | 0.0 | 0.00 | 0.00 | 0.00 | 99 | 1013.8 |
| 20260502041616 | 51 | 287 | 0.0 | 0.0 | 0.00 | 0.00 | 0.00 | 99 | 1013.9 |
| 20260502041113 | 51 | 287 | 0.0 | 0.0 | 0.00 | 0.00 | 0.00 | 99 | 1013.8 |
| 20260502040609 | 51 | 285 | 0.0 | 0.0 | 0.00 | 0.00 | 0.00 | 99 | 1013.9 |
| 20260502040107 | 51 | 285 | 0.0 | 0.0 | 0.00 | 0.06 | 0.06 | 99 | 1013.7 |
| 20260502035603 | 51 | 284 | 0.0 | 0.0 | 0.00 | 0.06 | 0.06 | 99 | 1013.6 |
| 20260502035100 | 51 | 284 | 0.0 | 0.0 | 0.00 | 0.06 | 0.06 | 99 | 1013.6 |
| 20260502034557 | 51 | 284 | 0.0 | 0.0 | 0.00 | 0.06 | 0.06 | 99 | 1013.6 |
| 20260502034056 | 51 | 284 | 0.0 | 0.0 | 0.00 | 0.06 | 0.06 | 99 | 1013.9 |
| 20260502033554 | 51 | 284 | 0.0 | 0.0 | 0.00 | 0.06 | 0.06 | 99 | 1013.8 |
| 20260502033051 | 51 | 284 | 0.0 | 0.0 | 0.00 | 0.06 | 0.06 | 99 | 1013.8 |